This is the latest recevied weather packets stored in our database for station/object R6HABA-13. If no packets are shown the sender has not sent any weather packets the latest 10 day(s).
| Time | Temp. | Humidity | Pressure | Rain* | Wind** | Luminosity | Snow |
|---|---|---|---|---|---|---|---|
| 1777809603 | 18.89° C | 50% | 1013 hPa | - | 4.47 m/s, 230° | - | - |
| 1777808704 | 18.89° C | 50% | 1013 hPa | - | 4.47 m/s, 230° | - | - |
| 1777807803 | 18.89° C | 50% | 1013 hPa | - | 4.47 m/s, 230° | - | - |
| 1777807031 | -17.78° C | 48% | 1014 hPa | - | 4.47 m/s, 228° | - | - |
| 1777806525 | 18.89° C | - | 1014 hPa | - | 0 m/s | - | - |
| 1777805103 | 18.89° C | 51% | 1014 hPa | - | 4.47 m/s, 228° | - | - |
| 1777804334 | -17.78° C | 53% | 1014 hPa | - | 4.47 m/s, 227° | - | - |
| 1777803303 | 17.78° C | 53% | 1014 hPa | - | 4.47 m/s, 227° | - | - |
| 1777802403 | 18.33° C | 53% | 1014 hPa | - | 4.47 m/s, 227° | - | - |
| 1777802156 | -17.78° C | - | 1014 hPa | - | 0 m/s | - | - |
| 1777801386 | -17.78° C | - | 0 hPa | - | 0 m/s | - | - |
| 1777799702 | 15.56° C | 60% | 1014 hPa | - | 4.92 m/s, 225° | - | - |
| 1777798803 | 15.56° C | 60% | 1014 hPa | - | 4.92 m/s, 225° | - | - |
| 1777797903 | 15.56° C | 60% | 1014 hPa | - | 4.92 m/s, 225° | - | - |
| 1777797002 | 15.56° C | 60% | 1014 hPa | - | 4.92 m/s, 225° | - | - |
| 1777796103 | 15.56° C | 60% | 1015 hPa | - | 4.92 m/s, 225° | - | - |
| 1777795202 | 15.56° C | 60% | 1015 hPa | - | 4.92 m/s, 225° | - | - |
| 1777794303 | 15.56° C | 60% | 1015 hPa | - | 4.92 m/s, 225° | - | - |
| 1777793403 | 11.67° C | 70% | 1015 hPa | - | 4.47 m/s, 223° | - | - |
| 1777792504 | 11.67° C | 70% | 1016 hPa | - | 4.47 m/s, 223° | - | - |
| 1777791603 | 11.67° C | 70% | 1015 hPa | - | 4.47 m/s, 223° | - | - |
| 1777790702 | 11.67° C | 70% | 1016 hPa | - | 4.47 m/s, 223° | - | - |
| 1777789802 | 11.67° C | 70% | 1016 hPa | - | 4.47 m/s, 223° | - | - |
| 1777788903 | 11.67° C | 70% | 1016 hPa | - | 4.47 m/s, 223° | - | - |
| 1777788002 | 11.67° C | 70% | 1016 hPa | - | 4.47 m/s, 223° | - | - |
* Rain since midnight (hover to see other rain measurements)
** Current wind speed in m/s (hover to see current wind gust speed)